Location: Newark
(42.8481°N, 0.4872°E)
Time: 14:07:41
(UTC+00:00)

S-56A Canister/Altair - Visible Passes

Search period start: 30 October 2020 00:00
Search period end: 09 November 2020 00:00
Orbit: 633 x 2499 km, 38.9° (Epoch: 29 October)

Date Brightness Start Highest point End Pass type
(mag) Time Alt. Az. Time Alt. Az. Time Alt. Az.
30 Oct 9.4 04:03:17 17° S 04:05:27 22° SE 04:10:15 10° E visible
31 Oct 9.6 03:32:41 17° SE 03:33:00 17° SE 03:36:47 10° E visible
31 Oct 8.7 05:30:30 10° WSW 05:35:45 52° SSE 05:43:21 10° E visible
01 Nov 10.1 03:02:01 12° ESE 03:02:01 12° ESE 03:03:10 10° ESE visible
01 Nov 8.6 04:59:27 18° SW 05:03:09 47° SSE 05:10:01 10° E visible
02 Nov 8.5 04:28:45 30° SSW 04:30:35 41° SSE 04:36:45 10° E visible
03 Nov 8.5 03:58:01 36° SSE 03:58:05 36° SSE 04:03:34 10° E visible
03 Nov 8.4 05:56:07 10° WSW 06:01:26 63° S 06:09:17 10° E visible
04 Nov 9.3 03:27:15 25° ESE 03:27:15 25° ESE 03:30:27 10° E visible
04 Nov 8.2 05:24:41 16° WSW 05:28:48 61° S 05:35:58 10° E visible
05 Nov 10.1 02:56:28 14° ESE 02:56:28 14° ESE 02:57:24 10° E visible
05 Nov 8.0 04:53:54 31° WSW 04:56:11 58° S 05:02:44 10° E visible
06 Nov 7.7 04:23:05 51° SSW 04:23:38 54° S 04:29:35 10° E visible
07 Nov 8.4 03:52:16 41° SE 03:52:16 41° SE 03:56:33 10° E visible
07 Nov 8.3 05:49:42 11° W 05:54:35 55° S 06:01:41 10° ESE visible
08 Nov 9.5 03:21:26 22° ESE 03:21:26 22° ESE 03:23:36 10° E visible
08 Nov 8.1 05:18:52 22° WSW 05:21:59 55° S 05:28:30 10° ESE visible
